Tracking 29528 objects as of 12-Sep-2024
HD Live streaming from Space Station
objects crossing your sky now

METEOSAT 12 (MTG I1)

Track METEOSAT 12 (MTG I1) now!
METEOSAT 12 (MTG I1) is classified as:


NORAD ID: 54743
Int'l Code: 2022-170C
Perigee: 35,784.2 km
Apogee: 35,802.1 km
Inclination: 0.6 °
Period: 1,436.1 minutes
Semi major axis: 42164 km
RCS: Unknown
Launch date: December 13, 2022
Source: European Organisation for the Exploitation of Meteorological Satellites (EUME)
Launch site: FRENCH GUIANA (FRGUI)
Your satellite tracking list
Your tracking list is empty




NASA's NSSDC Master Catalog

Two Line Element Set (TLE):
1 54743U 22170C   24256.18682241 -.00000003  00000-0  00000+0 0  9999
2 54743   0.6062  46.6040 0002126  92.1329 279.9263  1.00273834  6525
Source of the keplerian elements: AFSPC